Regional Weather Roundup
Issued by NWS

Home | Current Version | Previous Version | Text Only | Print | Product List | Glossary Off
Versions: 1 2 3 4 5 6 7 8 9 10 11 12 13 14 15 16 17 18 19 20 21 22 23 24 25 26 27 28 29 30 31 32 33 34 35 36 37 38 39 40 41 42 43 44 45 46 47 48 49 50

000
ASUS43 KLMK 211002
RWRKY
KENTUCKY REGIONAL WEATHER ROUNDUP
NATIONAL WEATHER SERVICE LOUISVILLE KY
600 AM EDT THU AUG 21 2014

NOTE "FAIR" INDICATES FEW OR NO CLOUDS BELOW 12,000 FEET
WITH NO SIGNIFICANT WEATHER AND/OR OBSTRUCTIONS TO VISIBILITY.

KYZ001>023-026-027-061>063-070>075-211100-
WESTERN AND SOUTH CENTRAL KENTUCKY

CITY           SKY/WX    TMP DP  RH WIND       PRES   REMARKS
PADUCAH        PTCLDY    79  73  82 SW6       30.02R
HENDERSON      CLOUDY    72  68  88 S6        30.01F
OWENSBORO      LGT RAIN  72  67  84 S8        30.03F
HOPKINSVILLE   NOT AVBL
BOWLING GREEN  CLOUDY    69  66  90 CALM      30.07R
GLASGOW        MOCLDY    67  67 100 CALM      30.08S
$$

KYZ024-025-028>034-038-045-046-053-211100-
NORTH CENTRAL KENTUCKY

CITY           SKY/WX    TMP DP  RH WIND       PRES   REMARKS
LOUISVILLE/SDF CLOUDY    72  68  87 S6        30.03F
LOUISVILLE/LOU CLOUDY    73  68  84 S6        30.05S
FORT KNOX      CLOUDY    71  71 100 SW8       30.04F
$$

KYZ035>037-039>044-047>052-055>060-089>105-211100-
NORTHEAST KENTUCKY

CITY           SKY/WX    TMP DP  RH WIND       PRES   REMARKS
LEXINGTON      MOCLDY    70  66  87 SW7       30.08R
COVINGTON      PTCLDY    70  68  93 S5        30.04R FOG
FRANKFORT      MOCLDY    69  67  93 CALM      30.06R
$$

KYZ054-064>069-076>088-106>120-211100-
SOUTHEAST KENTUCKY

CITY           SKY/WX    TMP DP  RH WIND       PRES   REMARKS
JACKSON        PTCLDY    67  64  90 CALM      30.11R
LONDON         PTCLDY    66  64  93 S3        30.12R
SOMERSET       MOCLDY    64  64 100 CALM      30.11R
MIDDLESBORO    FOG       64  64 100 CALM      30.13S VSB 1/2
MONTICELLO     MOSUNNY   65  65 100 CALM      30.11R
$$



USA.gov is the U.S. government's official web portal to all federal, state and local government web resources and services.